Time,TemperatureF,DewpointF,PressureIn,WindDirection,WindDirectionDegrees,WindSpeedMPH,WindSpeedGustMPH,Humidity,HourlyPrecipIn,Conditions,Clouds,dailyrainin,SoftwareType,DateUTC
2013-04-01 00:03:00,57.0,55.6,29.96,South,184,1.0,3.0,95,0.00,,,0.52,meteohub,2013-04-01 05:03:00,
2013-04-01 00:08:00,57.0,55.6,29.96,South,184,0.0,3.0,95,0.00,,,0.00,meteohub,2013-04-01 05:08:00,
2013-04-01 00:13:00,57.0,55.6,29.96,South,184,0.0,3.0,95,0.00,,,0.00,meteohub,2013-04-01 05:13:00,
2013-04-01 00:18:00,57.0,55.6,29.96,South,184,0.0,3.0,95,0.00,,,0.00,meteohub,2013-04-01 05:18:00,
2013-04-01 00:23:00,57.0,55.6,29.96,South,184,0.0,2.0,95,0.00,,,0.00,meteohub,2013-04-01 05:23:00,
2013-04-01 00:28:00,56.8,55.4,29.95,South,184,0.0,2.0,95,0.00,,,0.00,meteohub,2013-04-01 05:28:00,
2013-04-01 00:33:00,56.7,55.0,29.95,South,184,0.0,0.0,94,0.00,,,0.00,meteohub,2013-04-01 05:33:00,
2013-04-01 00:38:00,56.7,55.2,29.96,South,184,0.0,0.0,95,0.00,,,0.00,meteohub,2013-04-01 05:38:00,
2013-04-01 00:43:00,56.1,54.5,29.96,South,184,0.0,0.0,94,0.00,,,0.00,meteohub,2013-04-01 05:43:00,
2013-04-01 00:48:00,55.9,54.3,29.96,South,184,0.0,0.0,94,0.00,,,0.00,meteohub,2013-04-01 05:48:00,
2013-04-01 00:53:00,55.9,54.5,29.96,South,184,0.0,0.0,95,0.00,,,0.00,meteohub,2013-04-01 05:53:00,
2013-04-01 00:58:00,55.9,54.5,29.96,South,184,0.0,0.0,95,0.00,,,0.00,meteohub,2013-04-01 05:58:00,
2013-04-01 01:03:00,55.4,53.8,29.96,South,184,0.0,0.0,94,0.00,,,0.00,meteohub,2013-04-01 06:03:00,
2013-04-01 01:09:00,55.2,53.8,29.96,South,184,0.0,1.0,95,0.00,,,0.00,meteohub,2013-04-01 06:09:00,
2013-04-01 01:14:00,55.6,54.1,29.96,South,184,0.0,1.0,95,0.00,,,0.00,meteohub,2013-04-01 06:14:00,
2013-04-01 01:19:00,55.6,54.1,29.96,South,184,0.0,1.0,95,0.00,,,0.00,meteohub,2013-04-01 06:19:00,
2013-04-01 01:24:00,55.6,54.1,29.97,South,184,0.0,1.0,95,0.00,,,0.00,meteohub,2013-04-01 06:24:00,
2013-04-01 01:29:00,55.6,54.1,29.97,South,184,0.0,1.0,95,0.00,,,0.00,meteohub,2013-04-01 06:29:00,
2013-04-01 01:34:00,55.6,54.1,29.97,South,184,0.0,0.0,95,0.00,,,0.00,meteohub,2013-04-01 06:34:00,
2013-04-01 01:39:00,55.6,54.1,29.96,South,184,0.0,0.0,95,0.00,,,0.00,meteohub,2013-04-01 06:39:00,
2013-04-01 01:44:00,55.8,54.3,29.96,South,184,0.0,0.0,95,0.00,,,0.00,meteohub,2013-04-01 06:44:00,
2013-04-01 01:49:00,55.8,54.3,29.96,South,184,0.0,1.0,95,0.00,,,0.00,meteohub,2013-04-01 06:49:00,
2013-04-01 01:54:00,55.8,54.3,29.96,South,184,0.0,1.0,95,0.00,,,0.00,meteohub,2013-04-01 06:54:00,
2013-04-01 01:59:00,55.4,54.0,29.96,South,184,0.0,1.0,95,0.00,,,0.00,meteohub,2013-04-01 06:59:00,
2013-04-01 02:04:00,55.0,53.6,29.96,South,184,0.0,1.0,95,0.00,,,0.00,meteohub,2013-04-01 07:04:00,
2013-04-01 02:09:00,55.0,53.6,29.96,South,184,0.0,0.0,95,0.00,,,0.00,meteohub,2013-04-01 07:09:00,
2013-04-01 02:14:00,55.0,53.6,29.95,South,184,0.0,0.0,95,0.00,,,0.00,meteohub,2013-04-01 07:14:00,
2013-04-01 02:19:00,54.7,53.2,29.95,South,184,0.0,0.0,95,0.00,,,0.00,meteohub,2013-04-01 07:19:00,
2013-04-01 02:24:00,54.3,52.9,29.95,South,184,0.0,0.0,95,0.00,,,0.00,meteohub,2013-04-01 07:24:00,
2013-04-01 02:29:00,54.0,52.5,29.95,South,184,0.0,0.0,95,0.00,,,0.00,meteohub,2013-04-01 07:29:00,
2013-04-01 02:34:00,53.6,52.2,29.95,South,184,0.0,2.0,95,0.00,,,0.00,meteohub,2013-04-01 07:34:00,
2013-04-01 02:39:00,54.0,52.5,29.95,South,184,0.0,2.0,95,0.00,,,0.00,meteohub,2013-04-01 07:39:00,
2013-04-01 02:44:00,54.1,52.7,29.95,South,184,0.0,2.0,95,0.00,,,0.00,meteohub,2013-04-01 07:44:00,
2013-04-01 02:49:00,54.1,52.7,29.95,South,184,0.0,1.0,95,0.00,,,0.00,meteohub,2013-04-01 07:49:00,
2013-04-01 02:54:00,54.1,52.7,29.95,South,184,0.0,1.0,95,0.00,,,0.00,meteohub,2013-04-01 07:54:00,
2013-04-01 02:59:00,54.1,52.7,29.95,South,184,0.0,0.0,95,0.00,,,0.00,meteohub,2013-04-01 07:59:00,
2013-04-01 03:04:00,54.0,52.5,29.95,South,184,0.0,0.0,95,0.00,,,0.00,meteohub,2013-04-01 08:04:00,
2013-04-01 03:09:00,54.0,52.5,29.95,South,184,0.0,0.0,95,0.01,,,0.01,meteohub,2013-04-01 08:09:00,
2013-04-01 03:14:00,54.1,53.1,29.95,South,184,0.0,1.0,96,0.01,,,0.01,meteohub,2013-04-01 08:14:00,
2013-04-01 03:19:00,54.3,53.2,29.95,South,184,0.0,1.0,96,0.01,,,0.01,meteohub,2013-04-01 08:19:00,
2013-04-01 03:24:00,54.1,52.7,29.96,South,184,1.0,1.0,95,0.01,,,0.01,meteohub,2013-04-01 08:24:00,
2013-04-01 03:29:00,54.1,52.7,29.96,South,184,1.0,2.0,95,0.01,,,0.01,meteohub,2013-04-01 08:29:00,
2013-04-01 03:34:00,54.3,53.2,29.96,South,184,1.0,2.0,96,0.01,,,0.01,meteohub,2013-04-01 08:34:00,
2013-04-01 03:39:00,54.7,53.6,29.96,South,184,0.0,2.0,96,0.01,,,0.01,meteohub,2013-04-01 08:39:00,
2013-04-01 04:14:00,54.5,53.4,29.97,South,184,1.0,1.0,96,0.00,,,0.01,meteohub,2013-04-01 09:14:00,
2013-04-01 04:21:00,54.3,52.9,29.97,South,184,2.0,3.0,95,0.00,,,0.01,meteohub,2013-04-01 09:21:00,
2013-04-01 04:32:00,53.8,52.3,29.97,South,184,1.0,3.0,95,0.00,,,0.01,meteohub,2013-04-01 09:32:00,
2013-04-01 04:40:00,53.6,52.2,29.98,South,184,2.0,3.0,95,0.00,,,0.01,meteohub,2013-04-01 09:40:00,
2013-04-01 04:45:00,53.4,52.0,29.98,South,184,1.0,2.0,95,0.00,,,0.01,meteohub,2013-04-01 09:45:00,
2013-04-01 04:50:00,53.4,52.3,29.98,South,184,0.0,2.0,96,0.00,,,0.01,meteohub,2013-04-01 09:50:00,
2013-04-01 04:55:00,53.2,52.2,29.99,South,184,1.0,2.0,96,0.00,,,0.01,meteohub,2013-04-01 09:55:00,
2013-04-01 05:00:00,53.2,51.8,29.99,South,184,0.0,2.0,95,0.00,,,0.01,meteohub,2013-04-01 10:00:00,
2013-04-01 05:05:00,53.2,51.8,29.99,South,184,0.0,2.0,95,0.00,,,0.01,meteohub,2013-04-01 10:05:00,
2013-04-01 05:10:00,53.2,51.8,29.99,South,184,0.0,2.0,95,0.00,,,0.01,meteohub,2013-04-01 10:10:00,
2013-04-01 05:15:00,53.1,52.0,29.99,South,184,0.0,2.0,96,0.00,,,0.01,meteohub,2013-04-01 10:15:00,
2013-04-01 05:20:00,53.1,52.0,30.00,South,184,0.0,1.0,96,0.00,,,0.01,meteohub,2013-04-01 10:20:00,
2013-04-01 05:25:00,53.1,52.0,30.00,South,184,0.0,1.0,96,0.00,,,0.01,meteohub,2013-04-01 10:25:00,
2013-04-01 05:30:00,53.2,52.2,30.01,South,184,0.0,0.0,96,0.00,,,0.01,meteohub,2013-04-01 10:30:00,
2013-04-01 05:35:00,53.2,52.2,30.01,South,184,0.0,1.0,96,0.00,,,0.01,meteohub,2013-04-01 10:35:00,
2013-04-01 05:40:00,53.4,52.3,30.01,South,184,2.0,2.0,96,0.00,,,0.01,meteohub,2013-04-01 10:40:00,
2013-04-01 05:45:00,53.6,52.5,30.01,South,184,3.0,4.0,96,0.00,,,0.01,meteohub,2013-04-01 10:45:00,
2013-04-01 05:50:00,53.6,52.5,30.02,South,184,2.0,4.0,96,0.00,,,0.01,meteohub,2013-04-01 10:50:00,
2013-04-01 05:55:00,53.6,52.5,30.02,South,184,0.0,4.0,96,0.00,,,0.01,meteohub,2013-04-01 10:55:00,
2013-04-01 06:00:00,53.8,52.7,30.02,South,184,0.0,4.0,96,0.00,,,0.01,meteohub,2013-04-01 11:00:00,
2013-04-01 06:05:00,54.0,52.9,30.03,South,184,0.0,3.0,96,0.00,,,0.01,meteohub,2013-04-01 11:05:00,
2013-04-01 06:10:00,54.1,53.1,30.03,South,184,0.0,2.0,96,0.00,,,0.01,meteohub,2013-04-01 11:10:00,
2013-04-01 06:15:00,54.1,53.1,30.03,South,184,0.0,2.0,96,0.00,,,0.01,meteohub,2013-04-01 11:15:00,
2013-04-01 06:20:00,54.1,53.1,30.04,South,184,0.0,2.0,96,0.00,,,0.01,meteohub,2013-04-01 11:20:00,
2013-04-01 06:25:00,54.3,53.2,30.04,South,184,0.0,0.0,96,0.00,,,0.01,meteohub,2013-04-01 11:25:00,
2013-04-01 06:30:00,54.5,53.4,30.04,South,184,0.0,2.0,96,0.00,,,0.01,meteohub,2013-04-01 11:30:00,
2013-04-01 06:35:00,54.7,53.6,30.04,South,184,0.0,2.0,96,0.00,,,0.01,meteohub,2013-04-01 11:35:00,
2013-04-01 06:40:00,54.9,53.8,30.04,South,184,0.0,2.0,96,0.00,,,0.01,meteohub,2013-04-01 11:40:00,
2013-04-01 06:45:00,54.9,53.8,30.04,South,184,0.0,1.0,96,0.00,,,0.01,meteohub,2013-04-01 11:45:00,
2013-04-01 06:50:00,55.0,54.0,30.05,South,184,0.0,1.0,96,0.00,,,0.01,meteohub,2013-04-01 11:50:00,
2013-04-01 06:55:00,55.2,54.1,30.05,South,184,0.0,2.0,96,0.00,,,0.01,meteohub,2013-04-01 11:55:00,
2013-04-01 07:00:00,55.2,54.1,30.05,South,184,0.0,2.0,96,0.00,,,0.01,meteohub,2013-04-01 12:00:00,
2013-04-01 07:05:00,55.2,54.1,30.05,South,184,1.0,3.0,96,0.00,,,0.01,meteohub,2013-04-01 12:05:00,
2013-04-01 07:10:00,55.4,54.3,30.05,South,184,1.0,3.0,96,0.00,,,0.01,meteohub,2013-04-01 12:10:00,
2013-04-01 07:15:00,55.4,54.3,30.05,South,184,0.0,3.0,96,0.00,,,0.01,meteohub,2013-04-01 12:15:00,
2013-04-01 07:20:00,55.2,54.1,30.06,South,184,0.0,3.0,96,0.00,,,0.01,meteohub,2013-04-01 12:20:00,
2013-04-01 07:25:00,55.4,54.3,30.06,South,184,0.0,3.0,96,0.00,,,0.01,meteohub,2013-04-01 12:25:00,
2013-04-01 07:30:00,55.4,54.3,30.06,South,184,0.0,2.0,96,0.00,,,0.01,meteohub,2013-04-01 12:30:00,
2013-04-01 07:35:00,55.6,54.5,30.06,South,184,0.0,2.0,96,0.00,,,0.01,meteohub,2013-04-01 12:35:00,
2013-04-01 07:40:00,55.8,54.7,30.06,South,184,1.0,2.0,96,0.00,,,0.01,meteohub,2013-04-01 12:40:00,
2013-04-01 07:46:00,55.9,54.9,30.06,South,184,0.0,2.0,96,0.00,,,0.01,meteohub,2013-04-01 12:46:00,
2013-04-01 07:51:00,56.1,55.0,30.06,South,184,0.0,2.0,96,0.00,,,0.01,meteohub,2013-04-01 12:51:00,
2013-04-01 07:56:00,56.7,55.6,30.07,South,184,0.0,2.0,96,0.00,,,0.01,meteohub,2013-04-01 12:56:00,
2013-04-01 08:01:00,57.2,56.3,30.07,South,184,0.0,1.0,97,0.00,,,0.01,meteohub,2013-04-01 13:01:00,
2013-04-01 08:06:00,57.6,56.7,30.07,South,184,0.0,1.0,97,0.00,,,0.01,meteohub,2013-04-01 13:06:00,
2013-04-01 08:11:00,57.7,56.8,30.08,South,184,0.0,1.0,97,0.00,,,0.01,meteohub,2013-04-01 13:11:00,
2013-04-01 08:17:00,57.7,56.7,30.08,South,184,0.0,1.0,96,0.00,,,0.01,meteohub,2013-04-01 13:17:00,
2013-04-01 08:22:00,58.1,57.2,30.08,South,184,3.0,3.0,97,0.00,,,0.01,meteohub,2013-04-01 13:22:00,
2013-04-01 08:27:00,58.3,57.4,30.08,South,184,1.0,4.0,97,0.00,,,0.01,meteohub,2013-04-01 13:27:00,
2013-04-01 08:32:00,58.6,57.6,30.09,South,184,0.0,4.0,96,0.00,,,0.01,meteohub,2013-04-01 13:32:00,
2013-04-01 08:37:00,59.2,58.3,30.08,South,184,0.0,4.0,97,0.00,,,0.01,meteohub,2013-04-01 13:37:00,
2013-04-01 08:42:00,59.7,58.8,30.09,South,184,0.0,3.0,97,0.00,,,0.01,meteohub,2013-04-01 13:42:00,
2013-04-01 08:47:00,60.3,59.4,30.09,South,184,0.0,3.0,97,0.00,,,0.01,meteohub,2013-04-01 13:47:00,
2013-04-01 08:52:00,60.3,59.2,30.09,SW,220,2.0,2.0,96,0.00,,,0.01,meteohub,2013-04-01 13:52:00,
2013-04-01 08:57:00,59.9,58.8,30.09,SW,234,0.0,5.0,96,0.00,,,0.01,meteohub,2013-04-01 13:57:00,
2013-04-01 09:02:00,60.4,59.4,30.09,SW,234,2.0,5.0,96,0.00,,,0.01,meteohub,2013-04-01 14:02:00,
2013-04-01 09:07:00,60.4,59.0,30.09,WSW,250,2.0,5.0,95,0.00,,,0.01,meteohub,2013-04-01 14:07:00,
2013-04-01 09:12:00,60.3,58.5,30.09,WSW,248,2.0,5.0,94,0.00,,,0.01,meteohub,2013-04-01 14:12:00,
2013-04-01 09:17:00,60.3,58.5,30.10,WSW,248,1.0,6.0,94,0.00,,,0.01,meteohub,2013-04-01 14:17:00,
2013-04-01 09:22:00,60.6,58.8,30.10,West,262,0.0,6.0,94,0.00,,,0.01,meteohub,2013-04-01 14:22:00,
2013-04-01 09:27:00,61.5,59.7,30.10,West,262,1.0,4.0,94,0.00,,,0.01,meteohub,2013-04-01 14:27:00,
2013-04-01 09:32:00,62.1,59.7,30.09,NNW,328,1.0,3.0,92,0.00,,,0.01,meteohub,2013-04-01 14:32:00,
2013-04-01 09:37:00,62.6,59.9,30.09,NNE,30,1.0,4.0,91,0.00,,,0.01,meteohub,2013-04-01 14:37:00,
2013-04-01 09:42:00,62.8,59.5,30.09,NNE,28,4.0,4.0,89,0.00,,,0.01,meteohub,2013-04-01 14:42:00,
2013-04-01 09:47:00,62.8,59.5,30.09,North,351,4.0,6.0,89,0.00,,,0.01,meteohub,2013-04-01 14:47:00,
2013-04-01 09:52:00,63.0,59.4,30.09,WSW,256,1.0,6.0,88,0.00,,,0.01,meteohub,2013-04-01 14:52:00,
2013-04-01 09:57:00,62.8,59.2,30.09,NNE,15,7.0,7.0,88,0.00,,,0.01,meteohub,2013-04-01 14:57:00,
2013-04-01 10:02:00,62.6,59.0,30.09,NNE,15,3.0,7.0,88,0.00,,,0.01,meteohub,2013-04-01 15:02:00,
2013-04-01 10:07:00,63.1,59.9,30.09,North,355,3.0,7.0,89,0.00,,,0.01,meteohub,2013-04-01 15:07:00,
2013-04-01 10:12:00,63.7,60.1,30.09,North,355,1.0,7.0,88,0.00,,,0.01,meteohub,2013-04-01 15:12:00,
2013-04-01 10:17:00,64.2,60.6,30.09,North,355,0.0,6.0,88,0.00,,,0.01,meteohub,2013-04-01 15:17:00,
2013-04-01 10:22:00,64.6,59.9,30.09,NNE,15,4.0,6.0,85,0.00,,,0.01,meteohub,2013-04-01 15:22:00,
2013-04-01 10:27:00,64.2,59.5,30.09,NNE,28,2.0,7.0,85,0.00,,,0.01,meteohub,2013-04-01 15:27:00,
2013-04-01 10:32:00,64.2,59.5,30.09,NNE,19,4.0,7.0,85,0.00,,,0.01,meteohub,2013-04-01 15:32:00,
2013-04-01 10:37:00,64.2,59.5,30.09,NNW,347,3.0,8.0,85,0.00,,,0.01,meteohub,2013-04-01 15:37:00,
2013-04-01 10:42:00,64.6,59.9,30.10,North,355,8.0,8.0,85,0.00,,,0.01,meteohub,2013-04-01 15:42:00,
2013-04-01 10:48:00,64.8,60.1,30.10,NNE,25,5.0,8.0,85,0.00,,,0.01,meteohub,2013-04-01 15:48:00,
2013-04-01 10:53:00,64.9,59.9,30.09,North,0,3.0,8.0,84,0.00,,,0.01,meteohub,2013-04-01 15:53:00,
2013-04-01 10:58:00,64.9,59.9,30.09,NNE,12,4.0,8.0,84,0.00,,,0.01,meteohub,2013-04-01 15:58:00,
2013-04-01 11:03:00,64.8,60.1,30.09,North,355,6.0,9.0,85,0.00,,,0.01,meteohub,2013-04-01 16:03:00,
2013-04-01 11:08:00,65.1,60.4,30.09,NNE,18,6.0,9.0,85,0.00,,,0.01,meteohub,2013-04-01 16:08:00,
2013-04-01 11:13:00,65.3,60.3,30.09,NNW,345,4.0,10.0,84,0.00,,,0.01,meteohub,2013-04-01 16:13:00,
2013-04-01 11:18:00,66.0,60.4,30.09,NNE,26,6.0,11.0,82,0.00,,,0.01,meteohub,2013-04-01 16:18:00,
2013-04-01 11:23:00,66.4,60.4,30.09,NNE,15,7.0,11.0,81,0.00,,,0.01,meteohub,2013-04-01 16:23:00,
2013-04-01 11:28:00,66.7,61.0,30.09,NNE,16,8.0,11.0,82,0.00,,,0.01,meteohub,2013-04-01 16:28:00,
2013-04-01 11:33:00,67.3,61.0,30.09,NE,36,6.0,11.0,80,0.00,,,0.01,meteohub,2013-04-01 16:33:00,
2013-04-01 11:38:00,67.1,60.8,30.09,NNE,27,6.0,13.0,80,0.00,,,0.01,meteohub,2013-04-01 16:38:00,
2013-04-01 11:43:00,67.6,61.2,30.09,NE,55,5.0,13.0,80,0.00,,,0.01,meteohub,2013-04-01 16:43:00,
2013-04-01 11:48:00,68.2,60.6,30.09,North,5,6.0,13.0,77,0.00,,,0.01,meteohub,2013-04-01 16:48:00,
2013-04-01 11:53:00,67.8,60.3,30.09,NNE,24,7.0,11.0,77,0.00,,,0.01,meteohub,2013-04-01 16:53:00,
2013-04-01 11:58:00,67.8,60.3,30.09,NNE,29,7.0,12.0,77,0.00,,,0.01,meteohub,2013-04-01 16:58:00,
2013-04-01 12:03:00,68.2,60.3,30.09,NE,42,6.0,12.0,76,0.00,,,0.01,meteohub,2013-04-01 17:03:00,
2013-04-01 12:08:00,68.5,60.3,30.09,NNE,28,7.0,12.0,75,0.00,,,0.01,meteohub,2013-04-01 17:08:00,
2013-04-01 12:13:00,68.5,59.9,30.09,NNE,29,9.0,11.0,74,0.00,,,0.01,meteohub,2013-04-01 17:13:00,
2013-04-01 12:18:00,69.1,60.4,30.08,North,0,7.0,14.0,74,0.00,,,0.01,meteohub,2013-04-01 17:18:00,
2013-04-01 12:23:00,68.9,60.3,30.08,North,10,9.0,14.0,74,0.00,,,0.01,meteohub,2013-04-01 17:23:00,
2013-04-01 12:28:00,68.9,59.5,30.08,NNE,24,9.0,14.0,72,0.00,,,0.01,meteohub,2013-04-01 17:28:00,
2013-04-01 12:34:00,69.1,60.4,30.08,NW,322,6.0,14.0,74,0.00,,,0.01,meteohub,2013-04-01 17:34:00,
2013-04-01 12:39:00,69.6,61.0,30.08,NNW,341,8.0,14.0,74,0.00,,,0.01,meteohub,2013-04-01 17:39:00,
2013-04-01 12:44:00,69.6,60.6,30.08,NE,41,13.0,14.0,73,0.00,,,0.01,meteohub,2013-04-01 17:44:00,
2013-04-01 12:49:00,69.1,59.7,30.08,North,5,7.0,14.0,72,0.00,,,0.01,meteohub,2013-04-01 17:49:00,
2013-04-01 12:54:00,69.1,59.7,30.08,NNE,13,4.0,14.0,72,0.00,,,0.01,meteohub,2013-04-01 17:54:00,
2013-04-01 12:59:00,69.6,60.3,30.08,NE,37,5.0,14.0,72,0.00,,,0.01,meteohub,2013-04-01 17:59:00,
2013-04-01 13:04:00,70.0,60.6,30.07,NNE,27,9.0,11.0,72,0.00,,,0.01,meteohub,2013-04-01 18:04:00,
2013-04-01 13:09:00,69.6,60.3,30.07,NW,321,10.0,11.0,72,0.00,,,0.01,meteohub,2013-04-01 18:09:00,
2013-04-01 13:14:00,69.6,59.4,30.07,NNE,15,6.0,10.0,70,0.00,,,0.01,meteohub,2013-04-01 18:14:00,
2013-04-01 13:19:00,70.0,59.4,30.07,ENE,67,9.0,11.0,69,0.00,,,0.01,meteohub,2013-04-01 18:19:00,
2013-04-01 13:24:00,69.8,58.8,30.06,NNW,332,1.0,11.0,68,0.00,,,0.01,meteohub,2013-04-01 18:24:00,
2013-04-01 13:29:00,70.5,59.9,30.06,ENE,73,4.0,11.0,69,0.00,,,0.01,meteohub,2013-04-01 18:29:00,
2013-04-01 13:34:00,70.9,60.6,30.06,NE,53,8.0,11.0,70,0.00,,,0.01,meteohub,2013-04-01 18:34:00,
2013-04-01 13:39:00,70.9,60.3,30.06,North,0,7.0,10.0,69,0.00,,,0.01,meteohub,2013-04-01 18:39:00,
2013-04-01 13:44:00,71.2,59.7,30.05,NE,51,5.0,9.0,67,0.00,,,0.01,meteohub,2013-04-01 18:44:00,
2013-04-01 13:49:00,71.4,59.0,30.05,NNE,24,2.0,9.0,65,0.00,,,0.01,meteohub,2013-04-01 18:49:00,
2013-04-01 13:54:00,72.0,59.5,30.05,North,11,5.0,9.0,65,0.00,,,0.01,meteohub,2013-04-01 18:54:00,
2013-04-01 13:59:00,72.0,58.3,30.05,NNE,31,4.0,9.0,62,0.00,,,0.01,meteohub,2013-04-01 18:59:00,
2013-04-01 14:04:00,71.8,59.0,30.04,NNE,17,7.0,9.0,64,0.00,,,0.01,meteohub,2013-04-01 19:04:00,
2013-04-01 14:09:00,72.3,59.0,30.04,NNE,26,5.0,9.0,63,0.00,,,0.01,meteohub,2013-04-01 19:09:00,
2013-04-01 14:14:00,72.5,58.8,30.04,NNE,29,2.0,10.0,62,0.00,,,0.01,meteohub,2013-04-01 19:14:00,
2013-04-01 14:19:00,72.7,59.4,30.04,North,9,6.0,10.0,63,0.00,,,0.01,meteohub,2013-04-01 19:19:00,
2013-04-01 14:24:00,72.9,59.0,30.04,NE,43,6.0,8.0,62,0.00,,,0.01,meteohub,2013-04-01 19:24:00,
2013-04-01 14:29:00,73.0,59.7,30.04,NE,34,4.0,8.0,63,0.00,,,0.01,meteohub,2013-04-01 19:29:00,
2013-04-01 14:34:00,73.0,59.7,30.04,NE,34,5.0,8.0,63,0.00,,,0.01,meteohub,2013-04-01 19:34:00,
2013-04-01 14:39:00,73.6,59.7,30.03,NE,35,5.0,10.0,62,0.00,,,0.01,meteohub,2013-04-01 19:39:00,
2013-04-01 14:44:00,73.8,59.0,30.03,NNE,22,5.0,12.0,60,0.00,,,0.01,meteohub,2013-04-01 19:44:00,
2013-04-01 14:49:00,73.4,57.7,30.03,NNW,338,4.0,12.0,58,0.00,,,0.01,meteohub,2013-04-01 19:49:00,
2013-04-01 14:54:00,73.8,59.0,30.02,North,355,4.0,12.0,60,0.00,,,0.01,meteohub,2013-04-01 19:54:00,
2013-04-01 14:59:00,74.1,58.5,30.02,North,0,7.0,10.0,58,0.00,,,0.01,meteohub,2013-04-01 19:59:00,
2013-04-01 15:04:00,74.5,58.3,30.02,NW,309,0.0,9.0,57,0.00,,,0.01,meteohub,2013-04-01 20:04:00,
2013-04-01 15:09:00,75.4,57.6,30.02,North,5,4.0,8.0,54,0.00,,,0.01,meteohub,2013-04-01 20:09:00,
2013-04-01 15:14:00,75.0,58.3,30.02,NE,38,2.0,8.0,56,0.00,,,0.01,meteohub,2013-04-01 20:14:00,
2013-04-01 15:19:00,75.6,58.8,30.02,NE,38,6.0,8.0,56,0.00,,,0.01,meteohub,2013-04-01 20:19:00,
2013-04-01 15:24:00,75.2,59.0,30.02,NNE,16,4.0,8.0,57,0.00,,,0.01,meteohub,2013-04-01 20:24:00,
2013-04-01 15:29:00,74.8,58.1,30.01,NNE,20,3.0,8.0,56,0.00,,,0.01,meteohub,2013-04-01 20:29:00,
2013-04-01 15:35:00,74.3,58.1,30.01,NE,38,0.0,8.0,57,0.00,,,0.01,meteohub,2013-04-01 20:35:00,
2013-04-01 15:40:00,74.1,58.5,30.01,North,355,1.0,9.0,58,0.00,,,0.01,meteohub,2013-04-01 20:40:00,
2013-04-01 15:45:00,74.8,58.1,30.01,North,355,2.0,9.0,56,0.00,,,0.01,meteohub,2013-04-01 20:45:00,
2013-04-01 15:50:00,75.2,58.5,30.01,NE,36,3.0,8.0,56,0.00,,,0.01,meteohub,2013-04-01 20:50:00,
2013-04-01 15:55:00,75.6,57.2,30.01,NNW,337,2.0,7.0,53,0.00,,,0.01,meteohub,2013-04-01 20:55:00,
2013-04-01 16:00:00,75.6,57.7,30.01,NNE,24,6.0,7.0,54,0.00,,,0.01,meteohub,2013-04-01 21:00:00,
2013-04-01 16:05:00,74.8,58.1,30.01,NNE,18,5.0,8.0,56,0.00,,,0.01,meteohub,2013-04-01 21:05:00,
2013-04-01 16:10:00,74.8,58.1,30.01,ENE,75,4.0,8.0,56,0.00,,,0.01,meteohub,2013-04-01 21:10:00,
2013-04-01 16:15:00,74.8,58.1,30.00,East,80,2.0,8.0,56,0.00,,,0.01,meteohub,2013-04-01 21:15:00,
2013-04-01 16:20:00,74.8,57.6,30.00,North,5,4.0,8.0,55,0.00,,,0.01,meteohub,2013-04-01 21:20:00,
2013-04-01 16:25:00,75.0,57.2,30.00,North,0,1.0,8.0,54,0.00,,,0.01,meteohub,2013-04-01 21:25:00,
2013-04-01 16:30:00,75.6,57.2,30.00,NNE,18,5.0,8.0,53,0.00,,,0.01,meteohub,2013-04-01 21:30:00,
2013-04-01 16:35:00,75.4,57.0,30.00,NNW,342,0.0,8.0,53,0.00,,,0.01,meteohub,2013-04-01 21:35:00,
2013-04-01 16:40:00,75.9,56.5,30.00,North,5,4.0,8.0,51,0.00,,,0.01,meteohub,2013-04-01 21:40:00,
2013-04-01 16:45:00,75.9,56.5,30.00,NNE,12,4.0,7.0,51,0.00,,,0.01,meteohub,2013-04-01 21:45:00,
2013-04-01 16:50:00,75.6,56.1,30.00,NNE,22,6.0,7.0,51,0.00,,,0.01,meteohub,2013-04-01 21:50:00,
2013-04-01 16:55:00,75.2,56.8,29.99,NE,36,1.0,8.0,53,0.00,,,0.01,meteohub,2013-04-01 21:55:00,
2013-04-01 17:00:00,75.7,57.9,30.00,NE,36,1.0,8.0,54,0.00,,,0.01,meteohub,2013-04-01 22:00:00,
2013-04-01 17:05:00,76.1,55.6,29.99,North,5,5.0,6.0,49,0.00,,,0.01,meteohub,2013-04-01 22:05:00,
2013-04-01 17:10:00,75.7,54.7,29.99,North,5,1.0,7.0,48,0.00,,,0.01,meteohub,2013-04-01 22:10:00,
2013-04-01 17:15:00,75.7,54.1,29.99,East,94,1.0,7.0,47,0.00,,,0.01,meteohub,2013-04-01 22:15:00,
2013-04-01 17:20:00,75.7,55.8,29.99,North,10,2.0,7.0,50,0.00,,,0.01,meteohub,2013-04-01 22:20:00,
2013-04-01 17:25:00,75.7,55.2,29.99,NNE,23,2.0,7.0,49,0.00,,,0.01,meteohub,2013-04-01 22:25:00,
2013-04-01 17:30:00,75.6,55.0,29.99,North,355,2.0,7.0,49,0.00,,,0.01,meteohub,2013-04-01 22:30:00,
2013-04-01 17:35:00,75.6,55.6,29.99,North,0,4.0,7.0,50,0.00,,,0.01,meteohub,2013-04-01 22:35:00,
2013-04-01 17:40:00,75.6,55.6,29.99,NNE,12,0.0,7.0,50,0.00,,,0.01,meteohub,2013-04-01 22:40:00,
2013-04-01 17:45:00,75.4,55.4,29.99,NNE,29,0.0,6.0,50,0.00,,,0.01,meteohub,2013-04-01 22:45:00,
2013-04-01 17:50:00,75.6,56.7,29.99,NNE,20,3.0,6.0,52,0.00,,,0.01,meteohub,2013-04-01 22:50:00,
2013-04-01 17:55:00,75.6,56.1,29.99,North,10,2.0,6.0,51,0.00,,,0.01,meteohub,2013-04-01 22:55:00,
2013-04-01 18:00:00,75.4,55.9,29.98,NNW,348,3.0,6.0,51,0.00,,,0.01,meteohub,2013-04-01 23:00:00,
2013-04-01 18:05:00,75.2,56.8,29.98,NNE,22,3.0,6.0,53,0.00,,,0.01,meteohub,2013-04-01 23:05:00,
2013-04-01 18:10:00,75.0,55.6,29.98,NNE,31,3.0,6.0,51,0.00,,,0.01,meteohub,2013-04-01 23:10:00,
2013-04-01 18:15:00,75.0,56.1,29.98,NNE,31,0.0,5.0,52,0.00,,,0.01,meteohub,2013-04-01 23:15:00,
2013-04-01 18:20:00,74.8,55.0,29.98,North,5,2.0,5.0,50,0.00,,,0.01,meteohub,2013-04-01 23:20:00,
2013-04-01 18:26:00,74.7,55.9,29.98,NE,47,6.0,6.0,52,0.00,,,0.01,meteohub,2013-04-01 23:26:00,
2013-04-01 18:31:00,74.7,55.4,29.98,NNE,16,3.0,7.0,51,0.00,,,0.01,meteohub,2013-04-01 23:31:00,
2013-04-01 18:36:00,74.5,55.2,29.99,NE,47,1.0,7.0,51,0.00,,,0.01,meteohub,2013-04-01 23:36:00,
2013-04-01 18:41:00,74.3,55.6,29.99,NE,45,0.0,7.0,52,0.00,,,0.01,meteohub,2013-04-01 23:41:00,
2013-04-01 18:46:00,73.9,54.7,29.99,NE,45,0.0,5.0,51,0.00,,,0.01,meteohub,2013-04-01 23:46:00,
2013-04-01 18:51:00,73.8,56.1,29.99,NE,45,1.0,5.0,54,0.00,,,0.01,meteohub,2013-04-01 23:51:00,
2013-04-01 18:56:00,73.4,55.8,29.99,NE,45,1.0,3.0,54,0.00,,,0.01,meteohub,2013-04-01 23:56:00,
2013-04-01 19:01:00,73.0,55.4,29.99,NNE,32,1.0,2.0,54,0.00,,,0.01,meteohub,2013-04-02 00:01:00,
2013-04-01 19:07:00,72.7,55.0,29.98,NNE,32,0.0,3.0,54,0.00,,,0.01,meteohub,2013-04-02 00:07:00,
2013-04-01 19:12:00,72.1,55.0,29.99,NNE,32,0.0,3.0,55,0.00,,,0.01,meteohub,2013-04-02 00:12:00,
2013-04-01 19:17:00,71.8,55.2,29.99,NNE,32,0.0,2.0,56,0.00,,,0.01,meteohub,2013-04-02 00:17:00,
2013-04-01 19:22:00,71.2,55.8,29.99,NNE,32,0.0,2.0,58,0.00,,,0.01,meteohub,2013-04-02 00:22:00,
2013-04-01 19:27:00,70.9,55.8,29.99,NNE,32,0.0,1.0,59,0.00,,,0.01,meteohub,2013-04-02 00:27:00,
2013-04-01 19:32:00,70.3,55.4,29.99,NNE,32,0.0,1.0,59,0.00,,,0.01,meteohub,2013-04-02 00:32:00,
2013-04-01 19:37:00,70.0,55.4,29.99,NNE,32,0.0,0.0,60,0.00,,,0.01,meteohub,2013-04-02 00:37:00,
2013-04-01 19:42:00,69.3,55.8,29.99,NNE,32,1.0,0.0,62,0.00,,,0.01,meteohub,2013-04-02 00:42:00,
2013-04-01 19:47:00,68.5,55.9,29.99,NNE,32,0.0,1.0,64,0.00,,,0.01,meteohub,2013-04-02 00:47:00,
2013-04-01 19:52:00,68.4,57.0,29.99,NNE,32,0.0,1.0,67,0.00,,,0.01,meteohub,2013-04-02 00:52:00,
2013-04-01 19:57:00,68.0,56.7,29.99,NNE,32,0.0,1.0,67,0.00,,,0.01,meteohub,2013-04-02 00:57:00,
2013-04-01 20:02:00,67.6,56.3,29.99,NNE,32,0.0,0.0,67,0.00,,,0.01,meteohub,2013-04-02 01:02:00,
2013-04-01 20:08:00,67.5,56.5,29.99,NNE,32,0.0,0.0,68,0.00,,,0.01,meteohub,2013-04-02 01:08:00,
2013-04-01 20:13:00,67.3,55.6,29.99,NNE,32,0.0,0.0,66,0.00,,,0.01,meteohub,2013-04-02 01:13:00,
2013-04-01 20:18:00,66.9,55.6,29.99,NNE,32,0.0,0.0,67,0.00,,,0.01,meteohub,2013-04-02 01:18:00,
2013-04-01 20:23:00,66.9,55.2,29.99,NNE,32,0.0,0.0,66,0.00,,,0.01,meteohub,2013-04-02 01:23:00,
2013-04-01 20:28:00,67.1,56.1,29.99,NNE,32,0.0,0.0,68,0.00,,,0.01,meteohub,2013-04-02 01:28:00,
2013-04-01 20:33:00,66.9,56.5,30.00,NNE,32,0.0,1.0,69,0.00,,,0.01,meteohub,2013-04-02 01:33:00,
2013-04-01 20:38:00,66.6,56.1,30.00,NNE,32,0.0,1.0,69,0.00,,,0.01,meteohub,2013-04-02 01:38:00,
2013-04-01 20:43:00,66.2,56.1,30.00,NNE,32,0.0,1.0,70,0.00,,,0.01,meteohub,2013-04-02 01:43:00,
2013-04-01 20:48:00,66.0,56.3,30.00,NNE,32,0.0,1.0,71,0.00,,,0.01,meteohub,2013-04-02 01:48:00,
2013-04-01 20:53:00,65.8,56.1,30.01,NNE,32,0.0,0.0,71,0.00,,,0.01,meteohub,2013-04-02 01:53:00,
2013-04-01 20:58:00,65.7,56.3,30.01,NNE,32,0.0,1.0,72,0.00,,,0.01,meteohub,2013-04-02 01:58:00,
2013-04-01 21:03:00,65.5,57.0,30.01,NNE,32,0.0,1.0,74,0.00,,,0.01,meteohub,2013-04-02 02:03:00,
2013-04-01 21:08:00,65.5,57.0,30.01,NNE,32,0.0,1.0,74,0.00,,,0.01,meteohub,2013-04-02 02:08:00,
2013-04-01 21:13:00,65.1,57.0,30.01,NNE,32,0.0,1.0,75,0.00,,,0.01,meteohub,2013-04-02 02:13:00,
2013-04-01 21:18:00,65.1,57.4,30.01,NNE,32,0.0,0.0,76,0.00,,,0.01,meteohub,2013-04-02 02:18:00,
2013-04-01 21:23:00,64.9,57.2,30.01,NNE,32,0.0,0.0,76,0.00,,,0.01,meteohub,2013-04-02 02:23:00,
2013-04-01 21:28:00,64.8,57.0,30.02,NNE,32,0.0,0.0,76,0.00,,,0.01,meteohub,2013-04-02 02:28:00,
2013-04-01 21:33:00,64.6,56.8,30.02,NNE,32,3.0,0.0,76,0.00,,,0.01,meteohub,2013-04-02 02:33:00,
2013-04-01 21:38:00,63.7,57.4,30.02,NNE,32,0.0,4.0,80,0.00,,,0.01,meteohub,2013-04-02 02:38:00,
2013-04-01 21:43:00,62.8,56.5,30.02,NNE,32,0.0,4.0,80,0.00,,,0.01,meteohub,2013-04-02 02:43:00,
2013-04-01 21:48:00,62.6,56.3,30.02,NNE,32,0.0,4.0,80,0.00,,,0.01,meteohub,2013-04-02 02:48:00,
2013-04-01 21:53:00,62.4,55.8,30.03,NNE,32,0.0,3.0,79,0.00,,,0.01,meteohub,2013-04-02 02:53:00,
2013-04-01 21:58:00,62.2,55.6,30.03,NNE,32,0.0,0.0,79,0.00,,,0.01,meteohub,2013-04-02 02:58:00,
2013-04-01 22:03:00,62.2,55.6,30.03,NNE,32,0.0,0.0,79,0.00,,,0.01,meteohub,2013-04-02 03:03:00,
2013-04-01 22:08:00,62.2,55.6,30.03,NNE,32,0.0,0.0,79,0.00,,,0.01,meteohub,2013-04-02 03:08:00,
2013-04-01 22:13:00,62.1,55.8,30.03,NNE,32,0.0,0.0,80,0.00,,,0.01,meteohub,2013-04-02 03:13:00,
2013-04-01 22:18:00,61.7,55.4,30.04,NNE,32,0.0,0.0,80,0.00,,,0.01,meteohub,2013-04-02 03:18:00,
2013-04-01 22:23:00,61.3,55.4,30.04,NNE,32,0.0,0.0,81,0.00,,,0.01,meteohub,2013-04-02 03:23:00,
2013-04-01 22:29:00,61.2,55.2,30.04,NNE,32,0.0,0.0,81,0.00,,,0.01,meteohub,2013-04-02 03:29:00,
2013-04-01 22:34:00,61.0,55.4,30.04,NNE,32,0.0,0.0,82,0.00,,,0.01,meteohub,2013-04-02 03:34:00,
2013-04-01 22:39:00,60.6,55.4,30.04,NNE,32,0.0,0.0,83,0.00,,,0.01,meteohub,2013-04-02 03:39:00,
2013-04-01 22:44:00,60.1,55.6,30.04,NNE,32,0.0,0.0,85,0.00,,,0.01,meteohub,2013-04-02 03:44:00,
2013-04-01 22:49:00,59.9,55.4,30.04,NNE,32,0.0,0.0,85,0.00,,,0.01,meteohub,2013-04-02 03:49:00,
2013-04-01 22:54:00,59.7,55.6,30.04,NNE,32,0.0,0.0,86,0.00,,,0.01,meteohub,2013-04-02 03:54:00,
2013-04-01 22:59:00,59.7,55.6,30.04,NNE,32,0.0,0.0,86,0.00,,,0.01,meteohub,2013-04-02 03:59:00,
2013-04-01 23:00:00,59.9,55.8,30.04,NNE,32,0.0,0.0,86,0.00,,,0.01,meteohub,2013-04-02 04:00:00,
2013-04-01 23:05:00,60.1,55.6,30.04,NNE,32,0.0,0.0,85,0.00,,,0.01,meteohub,2013-04-02 04:05:00,
2013-04-01 23:10:00,60.3,55.8,30.05,NNE,32,0.0,0.0,85,0.00,,,0.01,meteohub,2013-04-02 04:10:00,
2013-04-01 23:15:00,60.3,55.8,30.05,NNE,32,0.0,0.0,85,0.00,,,0.01,meteohub,2013-04-02 04:15:00,
2013-04-01 23:20:00,60.1,55.6,30.04,NNE,32,0.0,0.0,85,0.00,,,0.01,meteohub,2013-04-02 04:20:00,
2013-04-01 23:25:00,59.7,55.2,30.05,NNE,32,0.0,0.0,85,0.00,,,0.01,meteohub,2013-04-02 04:25:00,
2013-04-01 23:30:00,59.5,55.4,30.05,NNE,32,0.0,0.0,86,0.00,,,0.01,meteohub,2013-04-02 04:30:00,
2013-04-01 23:35:00,59.4,55.4,30.04,NNE,32,0.0,0.0,87,0.00,,,0.01,meteohub,2013-04-02 04:35:00,
2013-04-01 23:40:00,59.2,55.4,30.04,NNE,32,0.0,0.0,87,0.00,,,0.01,meteohub,2013-04-02 04:40:00,
2013-04-01 23:45:00,58.8,55.0,30.04,NNE,32,0.0,0.0,87,0.00,,,0.01,meteohub,2013-04-02 04:45:00,
2013-04-01 23:50:00,58.8,55.0,30.04,NNE,32,0.0,0.0,87,0.00,,,0.01,meteohub,2013-04-02 04:50:00,
2013-04-01 23:55:00,58.6,54.9,30.04,NNE,32,0.0,0.0,87,0.00,,,0.01,meteohub,2013-04-02 04:55:00,